Regional Weather Roundup
Issued by NWS Jackson, KY

Home | Current Version | Previous Version | Text Only | Print | Product List | Glossary Off
Versions: 1 2 3 4 5 6 7 8 9 10 11 12 13 14 15 16 17 18 19 20 21 22 23 24 25 26 27 28 29 30 31 32 33 34 35 36 37 38 39 40 41 42 43 44 45 46 47 48 49 50

000
ASUS43 KJKL 180311
RWRJKL

EAST KENTUCKY HOURLY WEATHER ROUNDUP
NATIONAL WEATHER SERVICE JACKSON KY
1100 PM EDT WED SEP 17 2014

NOTE: "FAIR" INDICATES FEW OR NO CLOUDS BELOW 12,000 FEET WITH
NO SIGNIFICANT WEATHER AND/OR OBSTRUCTIONS TO VISIBILITY.

* THESE REPORTS ARE NOT UNDER NWS QUALITY CONTROL AND MAY NOT
  REPORT WEATHER SUCH AS PRECIPITATION AND FOG.

KYZ079-080-083-085-087-088-110-112-115-119-120-180400
...EASTERN KENTUCKY...

CITY           SKY/WX    TMP DP  RH WIND       PRES   REMARKS
JACKSON        CLEAR     59  54  83 E3        29.99F
LONDON         CLEAR     59  55  87 CALM      29.97F
MONTICELLO*    PTCLDY    59  57  92 CALM      30.01R
WILLIAMSBURG*  CLEAR     57  57 100 CALM      29.96F
MIDDLESBORO*   CLEAR     56  55  95 CALM      29.99F
HARLAN APT*    PTCLDY    55  55 100 MISG      29.99F
HAZARD APT*    PTCLDY    55  55 100 CALM      29.99F FOG
BLACK MTN*       N/A     52  52 100 S2          N/A
PIKEVILLE APT* CLEAR     61  54  77 CALM      30.00F
BIG SANDY*     CLEAR     56  55  99 CALM      30.00S
MOREHEAD APT*  PTCLDY    59  54  82 CALM      30.01S
$$

KYZ035-036-041-042-044-050-067-078-099-180400
...CENTRAL KENTUCKY...

CITY           SKY/WX    TMP DP  RH WIND       PRES   REMARKS
MT STERLING*   CLEAR     55  54  94 CALM      30.00S
FLEMING/MASON* CLEAR     57  52  82 N5        30.01R
DANVILLE*      PTCLDY    55  54  94 CALM      30.00R
RICHMOND*      PTCLDY    57  54  88 CALM      29.97S
LEXINGTON      PTCLDY    57  52  83 N3        29.99S
FRANKFORT      PTCLDY    56  53  90 CALM      29.99R
$$

KYZ091>093-OHZ055-061-077-WVZ005-015-034-035-042-180400
...SOUTHERN OHIO/WEST VIRGINIA...

CITY           SKY/WX    TMP DP  RH WIND       PRES   REMARKS
COVINGTON      CLEAR     58  49  72 N5        30.01R
COLUMBUS       CLEAR     57  49  74 N3        30.00R
DAYTON         CLEAR     54  48  80 CALM      30.02R
WILMINGTON     CLEAR     50  47  89 CALM      30.01R
HUNTINGTON     PTCLDY    56  56 100 CALM      29.98F FOG
CHARLESTON     MOCLDY    61  60  97 CALM      29.98S
PINEVILLE*     PTCLDY    59  59 100 MISG      30.06S FOG
BECKLEY        CLOUDY    60  56  86 CALM      30.03S
BLUEFIELD      PTCLDY    60  56  86 W3        30.05R
$$

VAZ002-007-008-TNZ017-027-036-066-071-180400
...SOUTHWEST VIRGINIA/EAST TENNESSEE...

CITY           SKY/WX    TMP DP  RH WIND       PRES   REMARKS
WISE*          CLEAR     55  55 100 CALM      30.04F
JONESVILLE*    CLEAR     55  55 100 CALM      30.01F
ABINGDON*      CLEAR     58  57  95 CALM      30.01F FOG
BRISTOL        PTCLDY    59  53  80 CALM      30.00R
KNOXVILLE      PTCLDY    62  58  86 CALM      29.96F
OAK RIDGE      CLEAR     62  57  83 VRB3      29.97F
CROSSVILLE     MOCLDY    59  54  83 CALM      30.01R
NASHVILLE      CLOUDY    66  59  78 NW5       29.98S
$$

...KEY TO REMARKS...
VSB - VISIBILITY IN MILES
WCI - WIND CHILL INDEX
HX  - HEAT INDEX

$$



USA.gov is the U.S. government's official web portal to all federal, state and local government web resources and services.